GEFSMW_prec_meanprecacc_138.txt.gz
Total_Precipitation_Accumulation
2.06 2.65 3.27 3.84 4.54 5.25 5.73 5.60 4.91 4.28 3.59 3.01 2.44 2.30 2.08 1.85 1.63 1.43 1.20 1.07 0.95 0.86 0.79 0.69 0.71 0.61 0.60 0.62 0.61 0.71 0.77 0.80 0.85 1.03 1.06 0.93 0.85 0.88 0.90 0.86 0.92 0.96 1.04
2.04 2.76 3.36 3.58 3.57 3.75 3.90 3.43 3.13 2.93 2.48 2.20 2.01 1.84 1.75 1.55 1.35 1.23 1.11 0.85 0.78 0.75 0.68 0.71 0.65 0.61 0.61 0.56 0.57 0.64 0.69 0.70 0.73 0.85 0.92 0.87 0.88 0.85 0.69 0.77 0.79 0.86 1.05
2.15 2.63 2.76 2.75 2.64 2.58 2.49 2.19 2.03 2.15 2.04 1.98 1.89 1.76 1.78 1.68 1.46 1.19 1.04 0.83 0.67 0.64 0.65 0.67 0.68 0.66 0.55 0.53 0.57 0.55 0.58 0.58 0.58 0.65 0.75 0.78 0.78 0.72 0.65 0.66 0.71 0.80 0.92
2.10 2.07 1.66 1.49 1.62 1.69 1.73 1.90 1.90 1.90 1.78 1.74 1.51 1.29 1.17 1.06 0.96 0.94 0.89 0.87 0.73 0.63 0.58 0.58 0.66 0.63 0.54 0.59 0.46 0.45 0.51 0.54 0.47 0.47 0.52 0.52 0.60 0.69 0.73 0.67 0.66 0.70 0.70
1.15 0.93 0.79 0.84 1.05 1.26 1.48 1.83 1.87 1.74 1.62 1.54 1.47 1.43 1.30 1.21 1.07 1.01 1.02 0.97 0.95 0.82 0.63 0.53 0.59 0.61 0.61 0.67 0.57 0.55 0.47 0.45 0.42 0.41 0.46 0.46 0.42 0.47 0.61 0.68 0.68 0.66 0.54
0.54 0.54 0.62 0.80 1.00 1.16 1.26 1.45 1.57 1.69 1.70 1.70 1.64 1.50 1.39 1.32 1.19 1.03 0.93 0.88 0.87 0.84 0.75 0.66 0.71 0.70 0.64 0.64 0.59 0.59 0.54 0.51 0.48 0.39 0.41 0.55 0.51 0.40 0.46 0.50 0.56 0.56 0.42
0.38 0.54 0.60 0.77 0.87 0.99 1.01 1.09 1.19 1.34 1.42 1.47 1.52 1.50 1.43 1.34 1.17 1.04 0.91 0.86 0.76 0.69 0.70 0.74 0.75 0.73 0.70 0.64 0.58 0.56 0.58 0.63 0.63 0.49 0.38 0.40 0.50 0.46 0.41 0.41 0.40 0.45 0.44
0.24 0.29 0.34 0.43 0.55 0.73 0.90 1.02 1.03 1.02 1.00 1.01 1.16 1.28 1.26 1.22 1.13 1.10 0.91 0.82 0.76 0.74 0.76 0.77 0.71 0.68 0.66 0.62 0.60 0.53 0.51 0.57 0.64 0.63 0.63 0.56 0.44 0.50 0.46 0.42 0.48 0.55 0.59
0.20 0.21 0.22 0.28 0.37 0.43 0.56 0.75 0.78 0.77 0.76 0.79 0.87 0.92 0.98 1.07 1.10 1.02 0.85 0.73 0.73 0.74 0.75 0.69 0.66 0.64 0.63 0.64 0.64 0.62 0.60 0.58 0.53 0.57 0.69 0.68 0.54 0.49 0.48 0.47 0.54 0.74 0.74
0.20 0.20 0.22 0.24 0.26 0.29 0.41 0.55 0.66 0.67 0.67 0.69 0.73 0.72 0.82 0.90 0.95 0.92 0.84 0.73 0.72 0.75 0.75 0.70 0.65 0.64 0.60 0.60 0.64 0.62 0.66 0.70 0.66 0.62 0.67 0.75 0.75 0.67 0.63 0.62 0.65 0.79 0.82
0.22 0.24 0.21 0.25 0.23 0.23 0.30 0.41 0.56 0.61 0.55 0.57 0.63 0.70 0.76 0.87 0.91 0.88 0.87 0.79 0.76 0.77 0.74 0.72 0.75 0.73 0.65 0.64 0.64 0.63 0.67 0.71 0.77 0.81 0.80 0.79 0.87 0.93 0.85 0.83 0.84 0.87 0.95
0.25 0.25 0.20 0.21 0.18 0.20 0.26 0.34 0.41 0.46 0.46 0.52 0.61 0.66 0.70 0.79 0.88 0.85 0.85 0.87 0.86 0.83 0.77 0.75 0.80 0.75 0.68 0.67 0.65 0.62 0.64 0.72 0.83 0.95 1.08 1.09 1.02 0.97 0.91 0.92 0.94 1.00 1.13
0.31 0.24 0.21 0.20 0.17 0.17 0.21 0.28 0.37 0.45 0.45 0.49 0.60 0.67 0.65 0.69 0.80 0.86 0.86 0.88 0.92 0.95 0.95 0.87 0.83 0.80 0.78 0.75 0.69 0.67 0.67 0.69 0.72 0.83 1.07 1.27 1.41 1.31 1.10 0.98 0.94 1.00 1.11
0.24 0.22 0.19 0.20 0.24 0.23 0.26 0.33 0.43 0.45 0.48 0.51 0.57 0.64 0.67 0.74 0.82 0.84 0.87 0.90 0.90 0.95 1.00 0.99 0.96 0.92 0.87 0.81 0.78 0.82 0.81 0.76 0.72 0.77 0.86 0.97 1.16 1.32 1.36 1.22 1.08 1.05 1.14
0.27 0.23 0.24 0.24 0.26 0.30 0.34 0.41 0.53 0.54 0.55 0.68 0.77 0.83 0.81 0.85 0.90 0.92 0.92 1.00 1.00 1.01 1.12 1.16 1.15 1.11 1.05 0.93 0.93 1.00 0.92 0.91 0.85 0.81 0.80 0.76 0.83 0.95 1.09 1.17 1.25 1.23 1.19
0.29 0.27 0.28 0.31 0.29 0.31 0.38 0.45 0.54 0.61 0.72 0.98 1.11 1.12 1.16 1.17 1.16 1.14 1.09 1.15 1.22 1.34 1.37 1.35 1.32 1.28 1.14 1.13 1.05 1.04 1.02 1.04 1.01 0.96 0.91 0.83 0.76 0.75 0.82 0.90 1.01 1.15 1.18
0.35 0.35 0.38 0.43 0.40 0.41 0.44 0.47 0.51 0.61 0.77 0.95 1.09 1.18 1.22 1.23 1.28 1.30 1.31 1.32 1.37 1.41 1.44 1.48 1.48 1.44 1.44 1.34 1.10 1.02 1.00 1.03 1.10 1.15 1.16 0.94 0.75 0.79 0.78 0.84 0.84 0.86 0.94
0.44 0.48 0.49 0.53 0.53 0.53 0.53 0.58 0.70 0.80 0.89 1.00 1.11 1.26 1.31 1.35 1.39 1.34 1.28 1.26 1.26 1.25 1.23 1.21 1.19 1.25 1.23 1.17 0.98 0.91 0.87 0.93 0.98 1.00 1.01 0.97 0.84 0.79 0.78 0.79 0.75 0.70 0.69
0.50 0.55 0.60 0.62 0.67 0.73 0.72 0.73 0.83 0.96 1.07 1.13 1.26 1.36 1.44 1.52 1.46 1.35 1.28 1.19 1.15 1.07 1.01 0.98 1.01 1.05 1.09 1.07 0.92 0.88 0.83 0.86 0.85 0.83 0.85 0.87 0.79 0.73 0.62 0.62 0.63 0.62 0.60
0.53 0.58 0.67 0.72 0.76 0.86 0.90 0.89 0.92 0.98 1.05 1.11 1.18 1.27 1.35 1.48 1.50 1.41 1.37 1.31 1.28 1.18 1.12 1.07 1.05 1.05 1.13 1.19 1.00 0.92 0.84 0.86 0.87 0.96 0.98 0.94 0.81 0.70 0.54 0.52 0.56 0.56 0.53
0.52 0.54 0.61 0.72 0.77 0.84 0.92 0.98 0.98 0.94 0.94 0.92 0.91 1.00 1.14 1.26 1.33 1.35 1.34 1.38 1.38 1.31 1.19 1.05 0.98 0.97 1.05 1.16 1.02 0.89 0.82 0.87 0.96 1.05 1.12 1.07 0.89 0.65 0.51 0.45 0.45 0.42 0.46
0.50 0.54 0.58 0.64 0.73 0.83 0.96 1.06 1.03 0.99 0.97 0.96 0.98 1.03 1.10 1.09 1.08 1.14 1.18 1.25 1.32 1.29 1.19 1.03 0.89 0.85 0.83 0.81 0.83 0.71 0.64 0.70 0.82 0.95 1.09 1.10 0.92 0.69 0.53 0.42 0.36 0.33 0.32
0.46 0.43 0.48 0.56 0.68 0.84 0.99 1.10 1.07 1.11 1.12 1.08 1.11 1.12 1.14 1.14 1.14 1.13 1.13 1.13 1.11 1.03 0.96 0.86 0.85 0.84 0.79 0.72 0.64 0.53 0.45 0.47 0.60 0.74 0.99 1.08 0.95 0.80 0.65 0.54 0.47 0.38 0.32
0.39 0.38 0.39 0.46 0.56 0.65 0.74 0.87 0.92 1.00 1.10 1.08 1.00 0.92 0.90 0.91 0.95 1.00 1.00 1.02 0.98 0.93 0.88 0.83 0.84 0.81 0.76 0.69 0.64 0.59 0.48 0.48 0.59 0.67 0.81 0.94 0.97 0.88 0.81 0.70 0.57 0.46 0.41
0.41 0.41 0.42 0.46 0.50 0.55 0.60 0.68 0.78 0.89 1.05 1.11 1.04 0.98 0.94 0.90 0.89 0.93 0.97 0.94 0.92 0.87 0.80 0.77 0.82 0.82 0.79 0.73 0.66 0.67 0.65 0.63 0.67 0.67 0.76 0.90 1.00 1.01 0.97 0.94 0.83 0.71 0.64
0.46 0.51 0.52 0.51 0.49 0.51 0.57 0.65 0.75 0.89 1.03 1.05 0.96 0.94 0.94 0.93 0.92 0.89 0.92 0.94 0.83 0.82 0.77 0.76 0.78 0.79 0.73 0.63 0.51 0.50 0.50 0.47 0.46 0.48 0.64 0.81 0.98 1.10 1.14 1.17 1.11 0.99 0.89

GEFSMW_prec_meanprecacc_144.txt.gz
Total_Precipitation_Accumulation
2.07 2.67 3.30 3.89 4.58 5.30 5.79 5.65 4.97 4.37 3.70 3.13 2.56 2.39 2.17 1.94 1.70 1.48 1.27 1.14 1.00 0.92 0.86 0.76 0.78 0.67 0.67 0.70 0.69 0.77 0.84 0.87 0.93 1.11 1.14 0.98 0.88 0.91 0.93 0.89 0.96 0.99 1.06
2.05 2.79 3.39 3.61 3.59 3.79 3.96 3.47 3.21 3.04 2.58 2.29 2.11 1.94 1.83 1.65 1.44 1.31 1.18 0.93 0.86 0.83 0.74 0.79 0.74 0.68 0.69 0.65 0.66 0.72 0.77 0.78 0.81 0.94 1.01 0.93 0.94 0.90 0.70 0.79 0.84 0.89 1.09
2.15 2.64 2.78 2.78 2.66 2.61 2.55 2.25 2.10 2.26 2.14 2.08 1.98 1.85 1.87 1.81 1.56 1.26 1.13 0.91 0.78 0.75 0.75 0.75 0.77 0.75 0.62 0.61 0.66 0.64 0.66 0.67 0.67 0.73 0.84 0.84 0.85 0.79 0.69 0.68 0.72 0.83 1.00
2.11 2.08 1.67 1.50 1.64 1.72 1.77 1.94 1.94 1.96 1.86 1.82 1.59 1.39 1.26 1.16 1.05 1.03 0.99 0.97 0.84 0.76 0.70 0.68 0.77 0.74 0.62 0.68 0.54 0.52 0.60 0.64 0.56 0.54 0.58 0.57 0.66 0.75 0.80 0.72 0.68 0.74 0.76
1.15 0.94 0.80 0.85 1.06 1.28 1.51 1.86 1.90 1.79 1.68 1.61 1.55 1.52 1.38 1.31 1.19 1.16 1.18 1.13 1.08 0.95 0.76 0.64 0.71 0.73 0.71 0.76 0.66 0.65 0.57 0.54 0.50 0.48 0.53 0.53 0.49 0.52 0.68 0.76 0.73 0.71 0.57
0.54 0.55 0.63 0.80 1.01 1.17 1.28 1.47 1.60 1.72 1.75 1.76 1.74 1.63 1.50 1.43 1.31 1.18 1.08 1.05 1.01 0.95 0.85 0.77 0.82 0.81 0.74 0.75 0.70 0.71 0.66 0.62 0.58 0.47 0.46 0.62 0.58 0.46 0.53 0.56 0.62 0.63 0.46
0.38 0.54 0.61 0.78 0.88 1.00 1.03 1.11 1.21 1.38 1.47 1.53 1.60 1.60 1.54 1.45 1.26 1.16 1.03 0.98 0.87 0.79 0.79 0.82 0.86 0.82 0.81 0.74 0.68 0.66 0.69 0.74 0.74 0.59 0.44 0.45 0.55 0.50 0.46 0.47 0.47 0.52 0.48
0.25 0.30 0.35 0.44 0.56 0.74 0.92 1.03 1.05 1.05 1.04 1.06 1.21 1.35 1.34 1.29 1.21 1.19 1.00 0.91 0.85 0.82 0.85 0.87 0.80 0.76 0.75 0.71 0.70 0.62 0.59 0.66 0.74 0.71 0.71 0.65 0.50 0.55 0.51 0.48 0.56 0.62 0.67
0.21 0.22 0.23 0.29 0.38 0.43 0.57 0.76 0.80 0.80 0.79 0.83 0.92 0.98 1.04 1.13 1.18 1.09 0.92 0.80 0.81 0.82 0.81 0.76 0.74 0.72 0.72 0.74 0.76 0.73 0.69 0.68 0.62 0.65 0.78 0.77 0.63 0.57 0.55 0.52 0.60 0.82 0.83
0.20 0.21 0.22 0.25 0.28 0.31 0.42 0.57 0.69 0.71 0.72 0.73 0.78 0.76 0.87 0.95 1.01 0.99 0.90 0.79 0.77 0.81 0.82 0.76 0.71 0.71 0.66 0.66 0.71 0.70 0.73 0.77 0.74 0.71 0.76 0.83 0.82 0.74 0.70 0.67 0.71 0.87 0.92
0.22 0.24 0.22 0.27 0.25 0.24 0.31 0.43 0.59 0.65 0.60 0.60 0.66 0.72 0.80 0.92 0.97 0.94 0.94 0.86 0.83 0.83 0.81 0.78 0.82 0.79 0.72 0.70 0.71 0.69 0.73 0.77 0.85 0.88 0.87 0.86 0.95 1.00 0.92 0.90 0.91 0.96 1.05
0.25 0.25 0.22 0.24 0.19 0.21 0.27 0.36 0.43 0.49 0.51 0.55 0.64 0.69 0.73 0.84 0.95 0.91 0.92 0.94 0.92 0.87 0.82 0.80 0.86 0.81 0.73 0.73 0.70 0.68 0.70 0.79 0.89 1.01 1.15 1.15 1.09 1.05 0.99 1.00 1.02 1.09 1.24
0.31 0.24 0.22 0.20 0.17 0.18 0.22 0.29 0.38 0.47 0.48 0.52 0.63 0.69 0.68 0.73 0.85 0.91 0.90 0.91 0.94 0.98 0.98 0.90 0.87 0.86 0.85 0.83 0.75 0.73 0.73 0.75 0.78 0.90 1.15 1.34 1.49 1.40 1.21 1.09 1.05 1.11 1.21
0.24 0.22 0.20 0.20 0.24 0.24 0.26 0.33 0.44 0.46 0.50 0.52 0.59 0.66 0.69 0.77 0.86 0.87 0.90 0.93 0.93 0.98 1.04 1.04 1.01 0.97 0.94 0.89 0.86 0.89 0.89 0.85 0.80 0.84 0.93 1.04 1.23 1.40 1.44 1.30 1.16 1.14 1.23
0.27 0.24 0.24 0.25 0.26 0.30 0.34 0.42 0.54 0.55 0.56 0.69 0.79 0.85 0.83 0.86 0.92 0.94 0.94 1.03 1.05 1.06 1.18 1.22 1.20 1.16 1.11 1.00 1.01 1.08 1.01 1.00 0.95 0.90 0.88 0.84 0.90 1.03 1.16 1.23 1.30 1.30 1.27
0.29 0.27 0.28 0.31 0.29 0.31 0.39 0.46 0.55 0.61 0.73 0.99 1.12 1.13 1.17 1.18 1.18 1.17 1.11 1.17 1.26 1.39 1.43 1.41 1.37 1.34 1.21 1.23 1.17 1.14 1.12 1.13 1.10 1.05 0.98 0.89 0.81 0.82 0.88 0.96 1.07 1.22 1.26
0.35 0.35 0.38 0.43 0.40 0.41 0.45 0.47 0.52 0.62 0.78 0.96 1.10 1.20 1.24 1.25 1.30 1.31 1.32 1.34 1.39 1.44 1.47 1.52 1.54 1.51 1.54 1.46 1.21 1.15 1.12 1.15 1.20 1.25 1.23 1.00 0.82 0.86 0.84 0.92 0.94 0.97 1.07
0.44 0.48 0.49 0.53 0.53 0.53 0.53 0.58 0.70 0.80 0.90 1.01 1.12 1.28 1.33 1.37 1.40 1.35 1.30 1.28 1.29 1.29 1.27 1.25 1.23 1.29 1.30 1.26 1.07 1.01 0.95 1.04 1.08 1.09 1.10 1.05 0.92 0.86 0.85 0.87 0.85 0.82 0.82
0.50 0.55 0.60 0.62 0.67 0.73 0.72 0.73 0.83 0.97 1.08 1.15 1.28 1.39 1.46 1.55 1.49 1.38 1.31 1.22 1.19 1.11 1.06 1.04 1.06 1.08 1.13 1.11 0.97 0.93 0.87 0.91 0.92 0.90 0.92 0.94 0.87 0.81 0.69 0.69 0.71 0.71 0.71
0.53 0.58 0.67 0.72 0.76 0.86 0.90 0.90 0.94 1.00 1.07 1.13 1.21 1.31 1.39 1.52 1.54 1.45 1.40 1.34 1.31 1.21 1.16 1.11 1.09 1.09 1.18 1.23 1.04 0.96 0.89 0.92 0.93 1.01 1.03 1.00 0.88 0.78 0.62 0.61 0.67 0.66 0.63
0.52 0.55 0.61 0.72 0.77 0.84 0.92 0.99 0.99 0.96 0.97 0.95 0.93 1.02 1.16 1.30 1.36 1.38 1.38 1.43 1.42 1.35 1.22 1.08 1.01 1.01 1.09 1.20 1.06 0.93 0.86 0.92 1.01 1.10 1.17 1.12 0.95 0.72 0.58 0.53 0.53 0.49 0.51
0.50 0.55 0.59 0.65 0.74 0.84 0.98 1.07 1.05 1.01 0.99 0.98 1.00 1.04 1.11 1.12 1.10 1.17 1.20 1.28 1.35 1.33 1.23 1.07 0.94 0.89 0.87 0.85 0.87 0.73 0.67 0.71 0.84 0.97 1.11 1.13 0.97 0.75 0.60 0.49 0.43 0.40 0.37
0.49 0.46 0.51 0.59 0.69 0.86 1.00 1.11 1.09 1.13 1.13 1.10 1.12 1.14 1.16 1.16 1.16 1.15 1.16 1.16 1.14 1.07 0.98 0.89 0.87 0.87 0.81 0.74 0.66 0.55 0.47 0.49 0.62 0.76 1.01 1.11 0.99 0.85 0.71 0.61 0.54 0.44 0.37
0.44 0.43 0.43 0.48 0.59 0.67 0.75 0.89 0.93 1.02 1.12 1.10 1.02 0.94 0.93 0.93 0.97 1.03 1.03 1.05 1.02 0.97 0.91 0.86 0.87 0.84 0.79 0.71 0.67 0.62 0.52 0.51 0.62 0.70 0.85 0.98 1.01 0.92 0.84 0.74 0.60 0.48 0.43
0.45 0.45 0.45 0.49 0.52 0.56 0.61 0.69 0.78 0.91 1.07 1.12 1.05 1.00 0.96 0.92 0.92 0.96 1.01 0.99 0.97 0.92 0.86 0.83 0.89 0.88 0.84 0.79 0.72 0.71 0.69 0.66 0.70 0.69 0.78 0.92 1.02 1.03 0.99 0.95 0.84 0.73 0.65
0.49 0.54 0.55 0.55 0.52 0.53 0.59 0.65 0.76 0.90 1.04 1.05 0.96 0.95 0.95 0.94 0.94 0.92 0.96 1.00 0.89 0.89 0.85 0.85 0.87 0.88 0.81 0.71 0.57 0.56 0.55 0.50 0.49 0.50 0.65 0.82 0.99 1.11 1.15 1.18 1.12 1.00 0.90

GEFSMW_prec_meanprecacc_150.txt.gz
Total_Precipitation_Accumulation
2.07 2.67 3.32 3.91 4.60 5.34 5.82 5.69 5.02 4.43 3.78 3.23 2.64 2.44 2.21 2.00 1.75 1.52 1.31 1.20 1.06 0.98 0.93 0.83 0.86 0.73 0.73 0.74 0.72 0.82 0.91 0.93 0.97 1.17 1.21 1.02 0.90 0.94 0.95 0.91 1.00 1.02 1.09
2.05 2.80 3.41 3.62 3.60 3.81 3.99 3.52 3.26 3.09 2.65 2.37 2.21 1.99 1.89 1.70 1.48 1.35 1.23 0.98 0.93 0.93 0.83 0.85 0.81 0.75 0.76 0.71 0.72 0.79 0.85 0.87 0.88 1.01 1.14 1.07 1.09 0.99 0.74 0.89 0.92 0.94 1.13
2.16 2.65 2.80 2.80 2.68 2.62 2.58 2.30 2.16 2.32 2.21 2.16 2.07 1.92 1.93 1.88 1.63 1.31 1.19 0.96 0.82 0.81 0.81 0.82 0.83 0.83 0.68 0.69 0.74 0.71 0.74 0.76 0.75 0.78 0.94 1.00 1.06 0.94 0.79 0.79 0.80 0.89 1.08
2.11 2.09 1.69 1.53 1.66 1.73 1.80 1.99 2.00 2.02 1.91 1.90 1.67 1.46 1.33 1.25 1.16 1.12 1.07 1.03 0.88 0.80 0.75 0.75 0.85 0.82 0.71 0.78 0.60 0.59 0.68 0.73 0.63 0.60 0.63 0.65 0.79 0.91 0.98 0.86 0.78 0.83 0.87
1.17 0.94 0.81 0.85 1.07 1.30 1.53 1.90 1.95 1.84 1.72 1.66 1.61 1.60 1.47 1.42 1.32 1.26 1.29 1.23 1.16 1.02 0.80 0.70 0.79 0.82 0.80 0.86 0.75 0.78 0.67 0.62 0.58 0.55 0.59 0.61 0.57 0.60 0.81 0.95 0.89 0.84 0.69
0.54 0.55 0.63 0.81 1.02 1.18 1.30 1.49 1.64 1.76 1.79 1.80 1.79 1.69 1.60 1.57 1.43 1.31 1.20 1.15 1.11 1.04 0.93 0.85 0.92 0.91 0.84 0.85 0.80 0.81 0.75 0.70 0.68 0.57 0.54 0.73 0.67 0.54 0.64 0.70 0.75 0.75 0.57
0.39 0.54 0.61 0.78 0.89 1.01 1.04 1.12 1.24 1.41 1.51 1.58 1.66 1.66 1.63 1.58 1.40 1.30 1.16 1.09 0.96 0.88 0.89 0.94 0.98 0.93 0.93 0.85 0.79 0.79 0.81 0.88 0.88 0.70 0.55 0.56 0.65 0.57 0.55 0.59 0.59 0.63 0.59
0.25 0.30 0.35 0.44 0.57 0.75 0.93 1.06 1.08 1.08 1.08 1.11 1.27 1.42 1.43 1.41 1.35 1.34 1.13 1.02 0.95 0.92 0.96 0.99 0.90 0.86 0.85 0.81 0.84 0.75 0.73 0.81 0.89 0.81 0.85 0.76 0.59 0.63 0.60 0.61 0.71 0.77 0.79
0.23 0.22 0.23 0.29 0.38 0.44 0.58 0.78 0.84 0.83 0.84 0.88 0.98 1.05 1.12 1.23 1.30 1.24 1.05 0.90 0.92 0.92 0.92 0.84 0.81 0.80 0.80 0.84 0.89 0.86 0.82 0.82 0.75 0.75 0.91 0.87 0.71 0.64 0.63 0.63 0.74 0.98 0.99
0.20 0.21 0.23 0.25 0.28 0.31 0.43 0.58 0.72 0.75 0.75 0.77 0.83 0.81 0.94 1.03 1.11 1.09 1.02 0.88 0.86 0.91 0.90 0.83 0.79 0.79 0.73 0.74 0.82 0.81 0.83 0.88 0.85 0.81 0.88 0.93 0.91 0.83 0.79 0.77 0.82 0.99 1.06
0.23 0.25 0.22 0.28 0.25 0.24 0.31 0.43 0.60 0.67 0.62 0.64 0.70 0.77 0.85 0.98 1.04 1.02 1.02 0.95 0.92 0.92 0.90 0.86 0.89 0.86 0.80 0.78 0.80 0.79 0.83 0.88 0.96 0.99 0.98 0.98 1.05 1.11 1.03 1.00 1.01 1.07 1.19
0.26 0.27 0.22 0.24 0.19 0.21 0.27 0.36 0.43 0.51 0.54 0.59 0.67 0.73 0.77 0.88 1.00 0.97 1.00 1.03 1.00 0.95 0.89 0.87 0.92 0.87 0.82 0.83 0.79 0.78 0.81 0.88 0.98 1.10 1.24 1.25 1.19 1.17 1.10 1.12 1.14 1.23 1.40
0.31 0.24 0.22 0.21 0.17 0.18 0.22 0.29 0.39 0.48 0.51 0.55 0.65 0.74 0.72 0.78 0.90 0.96 0.96 0.99 1.01 1.04 1.04 0.97 0.93 0.92 0.92 0.93 0.85 0.81 0.81 0.82 0.86 0.98 1.24 1.44 1.59 1.49 1.30 1.19 1.15 1.23 1.34
0.24 0.22 0.20 0.20 0.24 0.24 0.26 0.33 0.45 0.47 0.52 0.55 0.62 0.70 0.74 0.82 0.91 0.94 0.95 0.98 0.98 1.04 1.10 1.11 1.08 1.05 1.01 0.95 0.92 0.96 0.96 0.92 0.87 0.91 1.00 1.13 1.33 1.49 1.54 1.39 1.26 1.24 1.35
0.27 0.24 0.24 0.25 0.26 0.30 0.34 0.42 0.54 0.56 0.58 0.71 0.81 0.87 0.87 0.92 0.96 0.98 0.98 1.06 1.08 1.10 1.24 1.29 1.26 1.23 1.17 1.05 1.07 1.15 1.07 1.07 1.02 0.98 0.96 0.92 1.00 1.13 1.27 1.32 1.40 1.39 1.37
0.29 0.27 0.28 0.31 0.29 0.31 0.39 0.46 0.55 0.62 0.74 1.01 1.14 1.16 1.19 1.22 1.22 1.20 1.15 1.21 1.29 1.42 1.48 1.44 1.40 1.38 1.25 1.28 1.23 1.21 1.18 1.20 1.18 1.14 1.07 0.98 0.90 0.91 0.98 1.05 1.14 1.29 1.34
0.35 0.35 0.38 0.43 0.41 0.41 0.45 0.48 0.52 0.62 0.79 0.98 1.14 1.23 1.26 1.29 1.35 1.36 1.36 1.38 1.43 1.48 1.52 1.58 1.58 1.55 1.60 1.51 1.25 1.20 1.19 1.23 1.27 1.32 1.32 1.09 0.90 0.94 0.91 0.98 1.00 1.02 1.12
0.44 0.48 0.49 0.53 0.53 0.54 0.53 0.59 0.71 0.82 0.92 1.04 1.16 1.30 1.35 1.41 1.44 1.38 1.32 1.31 1.34 1.34 1.32 1.29 1.28 1.35 1.35 1.29 1.10 1.04 0.99 1.09 1.14 1.14 1.15 1.11 0.98 0.91 0.90 0.92 0.90 0.86 0.87
0.51 0.55 0.60 0.62 0.67 0.73 0.73 0.74 0.84 0.98 1.10 1.18 1.31 1.42 1.49 1.58 1.53 1.41 1.35 1.26 1.24 1.16 1.10 1.08 1.10 1.12 1.17 1.14 1.01 0.97 0.91 0.94 0.95 0.93 0.96 0.99 0.92 0.87 0.73 0.74 0.77 0.76 0.74
0.53 0.58 0.68 0.73 0.77 0.87 0.91 0.91 0.95 1.01 1.10 1.16 1.25 1.36 1.44 1.57 1.60 1.50 1.45 1.39 1.37 1.26 1.20 1.15 1.14 1.14 1.23 1.28 1.09 1.01 0.93 0.95 0.96 1.04 1.07 1.03 0.91 0.81 0.64 0.64 0.70 0.69 0.66
0.52 0.55 0.62 0.73 0.78 0.85 0.93 1.01 1.01 0.98 0.99 0.98 0.98 1.11 1.25 1.39 1.45 1.46 1.44 1.48 1.47 1.39 1.25 1.12 1.05 1.04 1.14 1.26 1.10 0.96 0.88 0.94 1.03 1.12 1.20 1.14 0.96 0.73 0.59 0.54 0.55 0.52 0.54
0.50 0.55 0.59 0.66 0.74 0.85 0.99 1.09 1.07 1.03 1.02 1.02 1.08 1.14 1.19 1.19 1.17 1.23 1.25 1.31 1.38 1.36 1.26 1.10 0.97 0.92 0.90 0.88 0.90 0.76 0.69 0.73 0.85 0.99 1.13 1.14 0.97 0.76 0.60 0.50 0.44 0.41 0.38
0.50 0.47 0.52 0.60 0.71 0.87 1.01 1.12 1.10 1.15 1.15 1.12 1.17 1.20 1.21 1.21 1.21 1.20 1.19 1.19 1.16 1.09 1.00 0.91 0.89 0.88 0.83 0.76 0.69 0.57 0.49 0.51 0.64 0.78 1.03 1.11 0.99 0.86 0.71 0.62 0.55 0.45 0.38
0.46 0.45 0.44 0.50 0.60 0.67 0.76 0.89 0.94 1.03 1.13 1.12 1.05 0.97 0.95 0.96 1.01 1.06 1.07 1.09 1.05 1.00 0.94 0.88 0.89 0.86 0.81 0.73 0.68 0.63 0.53 0.53 0.64 0.71 0.86 0.99 1.02 0.92 0.85 0.75 0.61 0.49 0.44
0.48 0.47 0.47 0.51 0.54 0.58 0.62 0.70 0.80 0.92 1.09 1.14 1.07 1.01 0.98 0.95 0.95 0.98 1.03 1.01 1.00 0.96 0.90 0.87 0.93 0.92 0.88 0.82 0.75 0.74 0.72 0.69 0.73 0.71 0.80 0.93 1.03 1.04 1.00 0.96 0.85 0.73 0.66
0.51 0.56 0.58 0.58 0.55 0.56 0.62 0.68 0.78 0.92 1.06 1.08 0.98 0.97 0.98 0.98 0.96 0.93 0.98 1.02 0.91 0.92 0.88 0.89 0.92 0.94 0.87 0.76 0.63 0.61 0.60 0.55 0.52 0.52 0.67 0.84 1.00 1.12 1.17 1.19 1.13 1.01 0.91

GEFSMW_prec_meanprecacc_156.txt.gz
Total_Precipitation_Accumulation
2.09 2.69 3.34 3.93 4.62 5.36 5.85 5.72 5.07 4.48 3.83 3.30 2.71 2.54 2.27 2.04 1.80 1.57 1.36 1.32 1.26 1.06 0.96 0.85 0.90 0.77 0.77 0.78 0.76 0.87 0.96 0.97 1.01 1.23 1.30 1.13 0.99 1.02 1.03 1.01 1.12 1.19 1.23
2.07 2.82 3.43 3.63 3.61 3.83 4.01 3.54 3.29 3.13 2.70 2.43 2.29 2.11 1.94 1.74 1.53 1.40 1.31 1.10 1.07 0.99 0.88 0.89 0.84 0.79 0.81 0.77 0.76 0.83 0.89 0.90 0.93 1.07 1.21 1.13 1.17 1.08 0.86 1.04 1.08 1.10 1.29
2.19 2.68 2.82 2.82 2.70 2.65 2.61 2.34 2.20 2.38 2.26 2.21 2.14 2.03 1.98 1.91 1.67 1.37 1.25 1.03 0.89 0.87 0.87 0.84 0.86 0.86 0.73 0.74 0.78 0.75 0.78 0.80 0.80 0.84 1.00 1.05 1.10 0.99 0.87 0.92 0.97 1.07 1.24
2.16 2.12 1.71 1.55 1.70 1.77 1.85 2.04 2.05 2.08 1.96 1.94 1.73 1.53 1.39 1.28 1.20 1.17 1.11 1.08 0.94 0.85 0.79 0.78 0.89 0.86 0.75 0.82 0.63 0.64 0.73 0.78 0.68 0.65 0.68 0.69 0.82 0.94 1.03 0.97 0.96 1.00 1.04
1.22 0.99 0.83 0.88 1.11 1.34 1.58 1.93 1.98 1.88 1.76 1.70 1.65 1.65 1.52 1.47 1.38 1.33 1.34 1.27 1.22 1.08 0.86 0.75 0.83 0.87 0.84 0.90 0.79 0.85 0.73 0.66 0.61 0.59 0.65 0.67 0.63 0.64 0.85 1.00 0.99 0.96 0.80
0.59 0.60 0.66 0.83 1.04 1.22 1.32 1.51 1.66 1.78 1.80 1.82 1.82 1.73 1.64 1.62 1.49 1.35 1.23 1.19 1.16 1.10 1.00 0.91 0.99 0.97 0.90 0.90 0.86 0.89 0.82 0.76 0.73 0.62 0.60 0.79 0.73 0.59 0.71 0.73 0.79 0.80 0.63
0.43 0.59 0.64 0.83 0.93 1.04 1.06 1.14 1.25 1.43 1.53 1.59 1.68 1.71 1.68 1.64 1.47 1.35 1.20 1.13 1.01 0.93 0.96 1.01 1.07 1.01 1.00 0.92 0.89 0.89 0.90 0.96 0.96 0.77 0.61 0.62 0.71 0.65 0.63 0.66 0.64 0.68 0.65
0.29 0.34 0.37 0.47 0.60 0.76 0.94 1.08 1.11 1.10 1.11 1.13 1.31 1.48 1.49 1.48 1.40 1.39 1.19 1.09 1.00 0.97 1.02 1.06 0.96 0.91 0.92 0.89 0.92 0.83 0.79 0.87 0.95 0.88 0.92 0.84 0.66 0.73 0.73 0.75 0.84 0.88 0.90
0.28 0.25 0.24 0.31 0.40 0.45 0.59 0.80 0.87 0.87 0.87 0.91 1.03 1.11 1.17 1.28 1.35 1.27 1.11 0.97 0.99 0.99 0.99 0.91 0.88 0.88 0.90 0.94 0.97 0.94 0.89 0.90 0.81 0.81 0.98 0.95 0.77 0.74 0.76 0.78 0.90 1.13 1.12
0.23 0.26 0.26 0.27 0.29 0.31 0.44 0.59 0.73 0.76 0.77 0.79 0.86 0.85 0.98 1.08 1.15 1.14 1.08 0.95 0.93 0.98 0.97 0.90 0.86 0.87 0.82 0.83 0.92 0.90 0.92 0.96 0.92 0.89 0.96 1.01 0.98 0.91 0.89 0.90 0.96 1.12 1.16
0.25 0.29 0.25 0.29 0.25 0.24 0.32 0.44 0.61 0.68 0.64 0.65 0.73 0.82 0.89 1.03 1.09 1.05 1.06 0.99 0.97 0.97 0.96 0.93 0.97 0.93 0.88 0.86 0.90 0.89 0.93 0.98 1.05 1.07 1.06 1.06 1.14 1.19 1.10 1.08 1.09 1.17 1.29
0.27 0.28 0.23 0.25 0.20 0.21 0.28 0.36 0.44 0.52 0.54 0.60 0.70 0.77 0.82 0.93 1.04 1.00 1.04 1.09 1.04 0.99 0.93 0.94 1.00 0.94 0.90 0.91 0.86 0.85 0.90 0.98 1.07 1.16 1.31 1.33 1.28 1.24 1.17 1.20 1.22 1.30 1.49
0.32 0.25 0.23 0.21 0.18 0.18 0.22 0.29 0.39 0.49 0.53 0.57 0.67 0.76 0.75 0.83 0.95 1.00 1.00 1.03 1.04 1.07 1.06 1.02 1.00 1.00 1.00 1.01 0.91 0.87 0.88 0.89 0.91 1.03 1.29 1.49 1.65 1.53 1.35 1.25 1.22 1.29 1.42
0.24 0.22 0.20 0.20 0.24 0.24 0.27 0.34 0.45 0.48 0.55 0.56 0.63 0.71 0.76 0.87 0.98 1.00 1.01 1.02 1.01 1.06 1.13 1.16 1.14 1.11 1.07 1.02 0.99 1.03 1.02 0.99 0.92 0.94 1.05 1.18 1.38 1.52 1.58 1.44 1.32 1.31 1.43
0.27 0.24 0.25 0.25 0.26 0.30 0.34 0.42 0.55 0.57 0.62 0.75 0.83 0.89 0.90 0.96 1.08 1.13 1.07 1.11 1.11 1.12 1.26 1.32 1.30 1.26 1.21 1.10 1.14 1.22 1.13 1.13 1.07 1.03 1.02 0.98 1.06 1.20 1.34 1.40 1.49 1.49 1.48
0.31 0.28 0.29 0.32 0.29 0.31 0.39 0.47 0.56 0.63 0.77 1.04 1.18 1.19 1.22 1.26 1.27 1.26 1.20 1.24 1.31 1.45 1.50 1.47 1.43 1.41 1.27 1.32 1.27 1.25 1.22 1.26 1.25 1.21 1.14 1.05 0.97 0.99 1.08 1.15 1.25 1.39 1.44
0.36 0.36 0.38 0.43 0.41 0.42 0.45 0.48 0.54 0.64 0.80 1.00 1.17 1.27 1.30 1.33 1.39 1.38 1.40 1.41 1.46 1.51 1.55 1.60 1.60 1.57 1.64 1.55 1.29 1.23 1.23 1.28 1.32 1.37 1.38 1.14 0.96 1.01 0.99 1.07 1.09 1.11 1.20
0.45 0.49 0.50 0.54 0.54 0.55 0.55 0.62 0.74 0.84 0.95 1.06 1.18 1.33 1.39 1.45 1.47 1.42 1.36 1.35 1.37 1.37 1.34 1.32 1.31 1.39 1.39 1.33 1.14 1.08 1.02 1.11 1.15 1.16 1.18 1.15 1.02 0.95 0.94 0.95 0.93 0.90 0.92
0.53 0.57 0.61 0.64 0.70 0.77 0.77 0.79 0.89 1.02 1.14 1.21 1.34 1.45 1.52 1.62 1.56 1.44 1.37 1.28 1.26 1.18 1.11 1.10 1.12 1.16 1.22 1.20 1.05 1.00 0.93 0.96 0.96 0.95 0.99 1.02 0.93 0.89 0.77 0.76 0.79 0.78 0.77
0.57 0.60 0.70 0.76 0.81 0.92 0.96 0.95 0.99 1.05 1.13 1.19 1.28 1.40 1.48 1.60 1.63 1.52 1.47 1.41 1.38 1.29 1.23 1.18 1.16 1.18 1.28 1.33 1.12 1.04 0.95 0.97 0.98 1.06 1.09 1.04 0.92 0.82 0.65 0.64 0.70 0.70 0.66
0.55 0.57 0.64 0.76 0.81 0.89 0.98 1.08 1.09 1.02 1.02 1.01 1.01 1.14 1.28 1.42 1.49 1.49 1.46 1.51 1.49 1.41 1.26 1.13 1.07 1.07 1.17 1.28 1.13 0.99 0.91 0.96 1.05 1.14 1.21 1.15 0.97 0.74 0.60 0.54 0.55 0.53 0.55
0.53 0.57 0.62 0.68 0.77 0.87 1.01 1.13 1.11 1.06 1.04 1.05 1.10 1.16 1.22 1.23 1.22 1.26 1.29 1.35 1.40 1.37 1.27 1.12 0.98 0.94 0.91 0.90 0.92 0.79 0.71 0.76 0.87 1.00 1.13 1.15 0.98 0.76 0.61 0.51 0.45 0.42 0.40
0.54 0.52 0.56 0.64 0.75 0.90 1.04 1.14 1.12 1.17 1.17 1.15 1.19 1.22 1.23 1.24 1.25 1.23 1.23 1.22 1.18 1.11 1.02 0.92 0.91 0.90 0.85 0.79 0.72 0.60 0.50 0.53 0.65 0.79 1.04 1.13 1.00 0.86 0.72 0.63 0.57 0.47 0.39
0.54 0.52 0.51 0.57 0.66 0.73 0.82 0.94 0.98 1.07 1.17 1.15 1.07 0.98 0.96 0.97 1.02 1.08 1.10 1.13 1.09 1.04 0.97 0.90 0.92 0.88 0.83 0.75 0.71 0.66 0.56 0.55 0.65 0.72 0.88 1.01 1.03 0.93 0.85 0.75 0.62 0.50 0.45
0.59 0.58 0.57 0.59 0.62 0.66 0.70 0.77 0.85 0.97 1.14 1.18 1.10 1.04 1.00 0.97 0.97 1.01 1.06 1.04 1.03 1.00 0.93 0.89 0.96 0.96 0.92 0.88 0.80 0.79 0.77 0.74 0.77 0.74 0.83 0.95 1.05 1.05 1.01 0.97 0.86 0.75 0.68
0.60 0.65 0.67 0.67 0.64 0.64 0.70 0.76 0.84 0.97 1.12 1.12 1.02 1.01 1.03 1.02 1.01 0.97 1.01 1.06 0.95 0.95 0.90 0.91 0.94 0.96 0.90 0.79 0.65 0.62 0.61 0.56 0.54 0.54 0.69 0.86 1.02 1.13 1.18 1.20 1.14 1.02 0.92

GEFSMW_prec_meanprecacc_162.txt.gz
Total_Precipitation_Accumulation
2.13 2.79 3.47 4.04 4.69 5.41 5.94 5.78 5.12 4.58 3.94 3.38 2.79 2.59 2.31 2.09 1.84 1.62 1.41 1.36 1.30 1.10 1.01 0.90 0.95 0.81 0.80 0.82 0.81 0.93 1.00 0.99 1.04 1.26 1.33 1.17 1.03 1.06 1.08 1.06 1.18 1.25 1.28
2.09 2.86 3.47 3.66 3.66 3.90 4.14 3.62 3.38 3.29 2.84 2.51 2.39 2.20 1.99 1.78 1.58 1.47 1.37 1.16 1.10 1.02 0.92 0.95 0.91 0.84 0.86 0.82 0.80 0.89 0.94 0.94 0.98 1.11 1.24 1.16 1.19 1.10 0.89 1.08 1.13 1.15 1.34
2.20 2.71 2.88 2.88 2.75 2.72 2.68 2.42 2.32 2.54 2.40 2.31 2.23 2.15 2.05 1.94 1.69 1.40 1.30 1.09 0.94 0.91 0.91 0.89 0.92 0.92 0.78 0.78 0.82 0.80 0.83 0.85 0.85 0.88 1.04 1.08 1.11 1.00 0.90 0.97 1.01 1.11 1.29
2.17 2.15 1.76 1.63 1.76 1.84 1.91 2.10 2.14 2.18 2.05 2.02 1.80 1.62 1.46 1.31 1.22 1.19 1.14 1.13 0.99 0.90 0.83 0.83 0.93 0.91 0.79 0.85 0.67 0.68 0.79 0.83 0.72 0.69 0.71 0.72 0.85 0.96 1.05 1.01 0.99 1.03 1.08
1.23 1.02 0.88 0.95 1.18 1.41 1.63 1.98 2.03 1.95 1.83 1.76 1.71 1.69 1.57 1.49 1.40 1.36 1.36 1.31 1.28 1.13 0.92 0.81 0.89 0.93 0.89 0.93 0.83 0.90 0.77 0.70 0.64 0.62 0.68 0.71 0.66 0.66 0.87 1.03 1.03 1.00 0.84
0.59 0.61 0.69 0.88 1.11 1.28 1.38 1.56 1.70 1.83 1.86 1.86 1.87 1.76 1.67 1.65 1.50 1.36 1.25 1.23 1.22 1.16 1.07 0.97 1.04 1.04 0.97 0.96 0.90 0.94 0.88 0.81 0.76 0.65 0.64 0.83 0.78 0.64 0.74 0.76 0.83 0.83 0.66
0.43 0.60 0.66 0.85 0.96 1.07 1.10 1.19 1.29 1.46 1.57 1.64 1.73 1.74 1.71 1.67 1.49 1.37 1.22 1.16 1.06 0.99 1.03 1.10 1.15 1.09 1.09 1.02 0.98 0.98 0.97 1.02 1.01 0.82 0.65 0.65 0.74 0.69 0.67 0.69 0.68 0.71 0.68
0.29 0.34 0.38 0.47 0.61 0.78 0.97 1.10 1.14 1.13 1.15 1.19 1.35 1.52 1.53 1.52 1.43 1.41 1.21 1.13 1.04 1.04 1.11 1.17 1.08 1.02 1.02 0.99 1.02 0.94 0.89 0.95 1.01 0.93 0.97 0.89 0.70 0.79 0.79 0.80 0.90 0.93 0.94
0.28 0.25 0.25 0.31 0.40 0.46 0.61 0.82 0.89 0.89 0.90 0.95 1.07 1.16 1.22 1.32 1.38 1.31 1.14 1.02 1.04 1.06 1.06 0.99 0.96 0.98 1.00 1.04 1.07 1.03 0.98 1.00 0.89 0.87 1.06 1.03 0.84 0.83 0.85 0.88 1.00 1.20 1.18
0.23 0.26 0.27 0.27 0.29 0.32 0.45 0.61 0.75 0.77 0.78 0.82 0.89 0.88 1.01 1.11 1.19 1.17 1.11 0.99 0.97 1.03 1.03 0.98 0.93 0.94 0.89 0.91 1.01 0.98 1.02 1.08 1.03 0.99 1.04 1.08 1.05 1.00 0.99 1.02 1.07 1.20 1.24
0.25 0.30 0.25 0.29 0.26 0.25 0.33 0.45 0.62 0.69 0.65 0.67 0.75 0.84 0.93 1.08 1.13 1.08 1.09 1.02 1.00 1.02 1.02 1.00 1.03 1.00 0.95 0.92 0.96 0.94 1.01 1.08 1.17 1.19 1.14 1.12 1.21 1.24 1.16 1.15 1.17 1.25 1.37
0.27 0.28 0.23 0.26 0.20 0.21 0.28 0.37 0.44 0.52 0.55 0.61 0.72 0.79 0.85 0.96 1.07 1.03 1.06 1.12 1.08 1.05 1.00 0.99 1.05 0.99 0.95 0.97 0.91 0.90 0.96 1.06 1.15 1.24 1.37 1.38 1.33 1.29 1.24 1.26 1.28 1.37 1.56
0.32 0.25 0.23 0.22 0.18 0.19 0.23 0.30 0.39 0.50 0.54 0.58 0.69 0.77 0.77 0.84 0.97 1.02 1.03 1.07 1.09 1.12 1.11 1.06 1.05 1.05 1.05 1.06 0.96 0.92 0.93 0.96 0.98 1.09 1.34 1.55 1.70 1.58 1.41 1.32 1.30 1.36 1.48
0.25 0.22 0.20 0.20 0.24 0.24 0.27 0.34 0.46 0.49 0.56 0.57 0.64 0.73 0.78 0.89 1.01 1.03 1.04 1.06 1.04 1.10 1.17 1.19 1.18 1.15 1.11 1.06 1.04 1.09 1.07 1.03 0.96 0.98 1.09 1.23 1.42 1.56 1.63 1.50 1.37 1.36 1.48
0.28 0.24 0.25 0.26 0.28 0.32 0.36 0.43 0.56 0.58 0.63 0.76 0.84 0.92 0.93 1.00 1.12 1.16 1.11 1.15 1.16 1.16 1.30 1.35 1.32 1.29 1.24 1.13 1.18 1.26 1.16 1.16 1.10 1.06 1.04 1.01 1.10 1.24 1.39 1.43 1.53 1.55 1.54
0.31 0.28 0.30 0.33 0.32 0.35 0.43 0.49 0.58 0.66 0.81 1.09 1.20 1.22 1.25 1.30 1.30 1.29 1.24 1.31 1.39 1.51 1.55 1.50 1.45 1.43 1.30 1.35 1.31 1.28 1.25 1.28 1.27 1.23 1.16 1.07 1.01 1.04 1.13 1.20 1.30 1.44 1.50
0.36 0.36 0.39 0.44 0.44 0.45 0.50 0.54 0.59 0.67 0.85 1.06 1.21 1.31 1.34 1.36 1.41 1.41 1.43 1.43 1.49 1.55 1.59 1.63 1.63 1.60 1.67 1.58 1.32 1.26 1.25 1.29 1.33 1.39 1.40 1.17 0.99 1.04 1.02 1.10 1.13 1.15 1.26
0.46 0.50 0.50 0.56 0.56 0.57 0.59 0.67 0.79 0.89 0.98 1.11 1.24 1.38 1.42 1.47 1.49 1.44 1.38 1.37 1.39 1.39 1.36 1.34 1.33 1.40 1.40 1.34 1.15 1.09 1.03 1.12 1.16 1.17 1.19 1.16 1.03 0.97 0.96 0.97 0.95 0.92 0.94
0.54 0.58 0.63 0.66 0.72 0.79 0.80 0.84 0.98 1.11 1.18 1.25 1.38 1.48 1.55 1.63 1.57 1.44 1.38 1.29 1.28 1.20 1.13 1.12 1.14 1.17 1.22 1.20 1.06 1.01 0.93 0.96 0.97 0.96 1.00 1.03 0.95 0.91 0.79 0.78 0.81 0.80 0.79
0.58 0.61 0.71 0.78 0.83 0.95 1.00 1.01 1.06 1.11 1.17 1.22 1.31 1.43 1.50 1.62 1.65 1.54 1.48 1.42 1.40 1.30 1.25 1.20 1.18 1.19 1.28 1.33 1.13 1.04 0.96 0.98 0.99 1.08 1.10 1.06 0.93 0.83 0.67 0.66 0.71 0.70 0.67
0.56 0.59 0.67 0.78 0.85 0.92 1.02 1.13 1.14 1.07 1.06 1.04 1.04 1.15 1.29 1.44 1.50 1.50 1.47 1.51 1.50 1.41 1.27 1.14 1.08 1.08 1.18 1.29 1.14 1.00 0.91 0.97 1.06 1.15 1.22 1.17 0.99 0.75 0.61 0.55 0.55 0.53 0.55
0.55 0.61 0.65 0.72 0.81 0.92 1.07 1.19 1.16 1.11 1.08 1.08 1.12 1.18 1.24 1.25 1.24 1.28 1.29 1.36 1.41 1.37 1.28 1.12 0.99 0.94 0.92 0.91 0.94 0.81 0.72 0.77 0.88 1.02 1.15 1.16 0.99 0.77 0.61 0.51 0.46 0.43 0.41
0.58 0.56 0.62 0.69 0.81 0.97 1.12 1.23 1.20 1.24 1.23 1.19 1.22 1.25 1.26 1.26 1.29 1.26 1.25 1.24 1.20 1.12 1.03 0.93 0.93 0.91 0.86 0.80 0.75 0.62 0.52 0.54 0.66 0.80 1.06 1.14 1.02 0.87 0.72 0.63 0.57 0.48 0.40
0.60 0.60 0.61 0.66 0.76 0.84 0.92 1.05 1.10 1.16 1.24 1.21 1.12 1.03 1.01 1.01 1.06 1.11 1.12 1.14 1.11 1.06 0.99 0.91 0.94 0.90 0.85 0.78 0.73 0.68 0.58 0.57 0.67 0.74 0.90 1.04 1.06 0.96 0.88 0.77 0.64 0.52 0.47
0.66 0.67 0.68 0.72 0.76 0.81 0.84 0.90 0.98 1.08 1.23 1.25 1.16 1.09 1.04 1.01 1.01 1.04 1.08 1.07 1.06 1.03 0.96 0.91 0.97 0.98 0.94 0.90 0.83 0.81 0.79 0.76 0.80 0.78 0.86 1.00 1.09 1.09 1.04 1.00 0.90 0.77 0.69
0.67 0.72 0.77 0.80 0.77 0.79 0.85 0.90 0.99 1.11 1.25 1.23 1.12 1.10 1.11 1.09 1.07 1.03 1.06 1.11 1.00 0.99 0.93 0.94 0.96 0.98 0.92 0.82 0.67 0.65 0.64 0.59 0.55 0.55 0.70 0.88 1.04 1.15 1.19 1.21 1.15 1.03 0.92

GEFSMW_prec_meanprecacc_168.txt.gz
Total_Precipitation_Accumulation
2.13 2.79 3.48 4.05 4.71 5.45 5.97 5.83 5.17 4.63 4.03 3.46 2.86 2.67 2.38 2.14 1.89 1.67 1.47 1.43 1.35 1.13 1.07 0.96 1.03 0.89 0.88 0.91 0.90 1.03 1.09 1.07 1.11 1.35 1.42 1.24 1.06 1.10 1.13 1.10 1.23 1.28 1.30
2.09 2.87 3.48 3.68 3.68 3.93 4.17 3.67 3.44 3.38 2.97 2.62 2.47 2.29 2.05 1.83 1.62 1.49 1.41 1.20 1.14 1.07 0.97 1.03 1.00 0.92 0.94 0.90 0.89 1.00 1.05 1.02 1.05 1.19 1.32 1.23 1.26 1.15 0.91 1.11 1.17 1.19 1.37
2.21 2.72 2.89 2.90 2.79 2.75 2.72 2.47 2.39 2.64 2.53 2.42 2.32 2.23 2.12 1.99 1.72 1.43 1.33 1.13 0.97 0.95 0.96 0.97 1.00 1.00 0.84 0.87 0.93 0.91 0.95 0.95 0.93 0.95 1.13 1.16 1.21 1.08 0.95 1.00 1.04 1.14 1.34
2.17 2.16 1.77 1.65 1.79 1.87 1.95 2.16 2.22 2.30 2.16 2.14 1.92 1.71 1.53 1.36 1.25 1.22 1.18 1.18 1.04 0.93 0.87 0.89 1.02 1.00 0.87 0.95 0.76 0.77 0.90 0.95 0.82 0.77 0.79 0.81 0.96 1.07 1.12 1.05 1.01 1.06 1.12
1.23 1.02 0.89 0.97 1.19 1.43 1.66 2.01 2.09 2.06 1.93 1.83 1.78 1.78 1.65 1.57 1.44 1.39 1.40 1.37 1.34 1.18 0.97 0.89 0.99 1.05 0.99 1.02 0.92 1.01 0.90 0.82 0.75 0.72 0.77 0.81 0.77 0.76 0.98 1.11 1.08 1.03 0.87
0.59 0.61 0.70 0.89 1.12 1.28 1.38 1.57 1.72 1.88 1.91 1.90 1.90 1.82 1.74 1.75 1.57 1.41 1.30 1.28 1.29 1.23 1.15 1.05 1.14 1.15 1.06 1.06 1.00 1.03 0.98 0.92 0.88 0.76 0.73 0.93 0.89 0.75 0.88 0.87 0.91 0.90 0.71
0.43 0.60 0.66 0.86 0.97 1.08 1.10 1.19 1.30 1.48 1.59 1.67 1.76 1.78 1.77 1.76 1.55 1.41 1.27 1.23 1.13 1.07 1.13 1.17 1.24 1.18 1.17 1.10 1.07 1.07 1.06 1.13 1.12 0.93 0.75 0.75 0.86 0.83 0.81 0.81 0.77 0.79 0.74
0.29 0.34 0.38 0.48 0.61 0.78 0.97 1.12 1.15 1.15 1.17 1.22 1.39 1.56 1.57 1.57 1.48 1.46 1.26 1.18 1.10 1.09 1.18 1.24 1.15 1.10 1.10 1.06 1.10 1.01 0.96 1.03 1.10 1.01 1.08 1.01 0.81 0.90 0.91 0.92 1.02 1.04 1.03
0.28 0.25 0.25 0.31 0.40 0.46 0.61 0.83 0.90 0.90 0.91 0.97 1.10 1.20 1.26 1.35 1.41 1.35 1.21 1.08 1.09 1.11 1.12 1.05 1.02 1.04 1.06 1.11 1.16 1.09 1.04 1.06 0.96 0.97 1.20 1.15 0.92 0.90 0.94 0.99 1.12 1.33 1.30
0.23 0.26 0.27 0.27 0.29 0.32 0.45 0.61 0.75 0.78 0.80 0.84 0.92 0.90 1.03 1.13 1.23 1.23 1.19 1.05 1.01 1.08 1.09 1.04 1.01 1.01 0.95 0.98 1.10 1.06 1.08 1.13 1.10 1.09 1.14 1.17 1.11 1.06 1.06 1.10 1.17 1.33 1.38
0.25 0.30 0.25 0.29 0.26 0.25 0.33 0.45 0.62 0.70 0.65 0.69 0.76 0.86 0.94 1.09 1.16 1.12 1.13 1.07 1.04 1.06 1.07 1.06 1.09 1.05 1.00 1.00 1.05 1.03 1.08 1.14 1.24 1.28 1.24 1.23 1.30 1.32 1.23 1.23 1.26 1.35 1.49
0.27 0.28 0.23 0.26 0.20 0.22 0.28 0.37 0.44 0.52 0.56 0.62 0.72 0.80 0.86 0.98 1.10 1.05 1.09 1.15 1.11 1.09 1.04 1.02 1.09 1.03 1.01 1.04 0.99 0.99 1.06 1.16 1.24 1.32 1.45 1.46 1.42 1.38 1.32 1.34 1.36 1.46 1.66
0.32 0.25 0.23 0.22 0.18 0.19 0.23 0.30 0.40 0.50 0.55 0.58 0.70 0.78 0.78 0.86 0.99 1.05 1.05 1.10 1.13 1.16 1.14 1.08 1.08 1.08 1.10 1.11 1.01 0.98 0.99 1.01 1.03 1.14 1.40 1.62 1.80 1.70 1.52 1.43 1.40 1.47 1.59
0.25 0.22 0.20 0.20 0.24 0.25 0.27 0.35 0.46 0.50 0.56 0.58 0.65 0.75 0.79 0.91 1.03 1.07 1.07 1.09 1.08 1.13 1.19 1.22 1.20 1.18 1.14 1.09 1.07 1.11 1.10 1.07 1.00 1.02 1.14 1.28 1.48 1.64 1.72 1.58 1.45 1.44 1.57
0.28 0.24 0.25 0.26 0.28 0.32 0.36 0.44 0.56 0.59 0.65 0.78 0.86 0.93 0.95 1.02 1.13 1.19 1.14 1.19 1.19 1.19 1.32 1.38 1.36 1.33 1.28 1.17 1.22 1.29 1.19 1.19 1.14 1.10 1.09 1.06 1.15 1.28 1.42 1.47 1.57 1.59 1.60
0.31 0.28 0.30 0.34 0.34 0.36 0.44 0.50 0.58 0.67 0.83 1.11 1.23 1.23 1.27 1.31 1.31 1.30 1.26 1.33 1.41 1.54 1.59 1.54 1.51 1.49 1.35 1.39 1.34 1.31 1.29 1.32 1.31 1.27 1.20 1.11 1.05 1.08 1.16 1.23 1.33 1.47 1.54
0.37 0.37 0.39 0.46 0.46 0.48 0.52 0.55 0.60 0.69 0.87 1.10 1.23 1.33 1.36 1.38 1.43 1.43 1.45 1.45 1.51 1.59 1.65 1.71 1.71 1.69 1.74 1.64 1.36 1.29 1.29 1.34 1.38 1.43 1.43 1.19 1.02 1.07 1.05 1.14 1.16 1.19 1.30
0.47 0.51 0.52 0.57 0.58 0.59 0.61 0.68 0.80 0.93 1.03 1.14 1.26 1.41 1.45 1.50 1.52 1.48 1.42 1.40 1.42 1.42 1.39 1.38 1.38 1.46 1.47 1.41 1.21 1.14 1.07 1.15 1.20 1.21 1.22 1.19 1.06 0.99 0.98 0.99 0.97 0.95 0.97
0.56 0.60 0.64 0.68 0.74 0.81 0.81 0.85 1.01 1.14 1.20 1.26 1.41 1.51 1.59 1.67 1.60 1.49 1.43 1.33 1.31 1.23 1.16 1.15 1.17 1.20 1.26 1.24 1.09 1.03 0.95 0.98 0.99 0.98 1.02 1.06 0.97 0.93 0.81 0.79 0.82 0.82 0.80
0.59 0.63 0.74 0.81 0.86 0.97 1.02 1.03 1.10 1.13 1.19 1.23 1.32 1.45 1.53 1.65 1.68 1.58 1.52 1.45 1.42 1.33 1.27 1.22 1.21 1.22 1.31 1.35 1.15 1.06 0.97 0.99 1.01 1.10 1.13 1.09 0.96 0.86 0.69 0.67 0.72 0.72 0.68
0.57 0.60 0.68 0.80 0.87 0.95 1.04 1.16 1.17 1.10 1.09 1.06 1.06 1.18 1.32 1.46 1.52 1.53 1.49 1.53 1.51 1.42 1.28 1.16 1.10 1.11 1.20 1.31 1.16 1.02 0.93 0.98 1.07 1.17 1.24 1.18 1.01 0.76 0.62 0.55 0.56 0.55 0.56
0.57 0.62 0.67 0.74 0.84 0.95 1.10 1.23 1.20 1.17 1.13 1.12 1.18 1.23 1.27 1.27 1.26 1.29 1.30 1.37 1.42 1.39 1.29 1.14 1.00 0.96 0.93 0.92 0.95 0.82 0.74 0.79 0.91 1.04 1.17 1.18 1.00 0.78 0.62 0.52 0.46 0.44 0.41
0.62 0.60 0.66 0.73 0.84 1.00 1.16 1.29 1.28 1.32 1.30 1.25 1.28 1.30 1.30 1.30 1.31 1.27 1.26 1.25 1.21 1.14 1.05 0.94 0.94 0.93 0.88 0.83 0.77 0.64 0.54 0.56 0.68 0.82 1.07 1.16 1.03 0.88 0.73 0.64 0.58 0.48 0.40
0.66 0.65 0.66 0.70 0.80 0.87 0.96 1.11 1.19 1.24 1.29 1.26 1.17 1.07 1.04 1.04 1.08 1.12 1.13 1.16 1.12 1.08 1.01 0.94 0.96 0.93 0.88 0.80 0.76 0.70 0.59 0.59 0.68 0.75 0.92 1.05 1.07 0.97 0.89 0.79 0.66 0.54 0.50
0.72 0.71 0.72 0.75 0.78 0.83 0.87 0.93 1.01 1.12 1.27 1.31 1.23 1.17 1.10 1.05 1.04 1.06 1.11 1.09 1.08 1.06 0.99 0.95 1.00 0.99 0.95 0.92 0.86 0.83 0.80 0.78 0.82 0.80 0.88 1.01 1.10 1.11 1.07 1.04 0.93 0.81 0.73
0.72 0.76 0.80 0.83 0.80 0.81 0.88 0.93 1.03 1.17 1.32 1.32 1.22 1.19 1.18 1.16 1.13 1.09 1.11 1.15 1.04 1.04 0.98 0.98 0.99 1.00 0.94 0.84 0.70 0.67 0.66 0.61 0.58 0.57 0.71 0.89 1.04 1.17 1.21 1.23 1.17 1.04 0.94